RH
100 100 96 90 86 88 82 74 58 45 38 43 43 32 30 36 40 30 34 37 39 48 48 47 48 47 38 24 21 21 14 8 21 56 95 93 88 100
100 96 86 82 79 73 59 46 40 40 41 40 32 34 41 42 32 34 35 40 49 51 52 52 55 58 53 35 24 25 21 24 38 62 98 100 100 100
87 79 71 55 48 39 46 49 44 41 37 32 36 37 38 32 36 36 41 44 54 56 55 60 62 69 74 56 45 41 38 40 62 75 83 100 100 100
78 62 41 31 38 40 56 54 43 44 36 29 30 34 29 33 36 38 44 50 58 58 58 63 62 75 74 67 55 55 55 59 62 84 88 91 76 84
55 39 32 41 76 58 61 53 58 45 37 28 34 29 30 33 38 40 46 53 60 60 64 64 76 77 68 67 65 62 59 58 58 68 80 98 100 100
36 40 57 80 80 69 68 55 65 44 34 35 29 30 33 38 41 45 50 58 62 67 69 73 79 66 63 61 63 70 70 68 65 63 63 65 77 99
46 54 77 64 77 68 56 61 53 40 35 31 31 34 39 45 45 53 61 67 76 83 86 80 65 59 59 61 63 66 70 72 67 65 67 65 63 63
58 91 93 75 85 63 72 64 54 39 35 34 36 43 50 53 60 68 77 78 88 71 63 63 66 68 62 62 61 62 64 66 71 80 82 78 73 66
90 77 81 81 72 76 94 75 49 43 41 40 44 53 63 68 69 70 73 71 68 66 64 64 67 68 66 65 66 67 67 64 64 65 63 60 60 62
81 80 74 96 95 82 75 63 56 58 62 54 56 62 63 61 61 63 64 64 67 67 68 67 68 66 65 65 68 73 74 68 66 60 50 47 46 45
67 94 100 100 78 95 94 73 63 62 75 69 63 61 62 63 63 62 66 69 71 72 72 68 68 70 70 71 77 84 80 66 55 46 44 44 47 47
100 98 100 98 94 93 81 79 68 68 74 78 73 68 68 72 70 69 72 76 82 80 75 75 78 77 75 78 84 81 64 49 43 42 39 38 38 38
100 96 95 93 100 100 88 70 77 71 72 78 84 81 79 80 81 78 76 74 72 70 75 77 76 77 79 83 74 60 47 42 40 37 38 40 40 40
100 98 98 100 99 89 75 67 80 78 75 72 74 82 86 85 82 83 81 79 75 77 81 78 78 80 84 78 54 43 39 41 42 42 41 41 37 34
98 100 100 100 94 81 70 73 83 76 72 77 76 74 75 78 78 74 71 68 72 78 75 78 83 83 76 57 45 36 33 31 32 37 39 35 28 25
93 100 100 100 100 86 68 72 72 80 72 72 77 74 69 71 70 70 71 70 76 78 78 81 82 77 56 44 35 25 24 24 23 28 32 30 26 20
100 100 100 99 88 82 73 77 77 80 78 73 84 82 76 67 70 71 72 84 77 73 78 83 80 55 46 32 23 22 21 21 22 25 28 27 23 20
100 100 86 83 84 74 75 76 80 83 80 82 87 82 71 68 73 74 88 84 76 78 78 60 41 38 28 23 21 20 20 19 18 17 20 20 16 19
98 97 88 77 78 75 77 75 79 83 84 86 89 86 76 75 76 88 84 82 81 75 48 35 32 24 20 20 21 18 15 12 13 15 14 13 14 24
77 74 81 85 80 77 78 76 77 84 88 90 87 82 82 77 79 80 80 83 72 44 35 29 22 19 19 21 24 14 10 14 14 11 10 12 17 36
87 88 87 86 81 76 80 83 87 92 92 89 87 88 85 81 81 83 87 63 38 35 29 20 18 18 20 24 21 14 15 15 13 11 13 24 32 32
90 96 93 88 83 84 91 97 98 98 94 93 88 85 84 81 85 86 54 37 34 27 20 18 18 20 21 22 16 24 31 25 21 22 26 38 38 30
88 89 89 89 91 100 100 98 95 92 92 88 84 84 80 87 78 42 36 32 25 21 18 20 22 21 21 18 27 42 43 41 37 34 39 42 53 55
Wind_Speed
106 107 109 110 109 108 108 108 108 96 93 93 87 90 87 85 84 80 70 66 62 58 52 51 53 58 58 54 50 47 43 29 32 57 64 61 63 66
109 107 108 108 108 106 104 99 97 94 90 85 87 85 84 84 81 73 65 64 60 55 51 50 53 55 56 57 53 46 36 22 27 48 62 64 67 69
105 106 104 101 104 98 93 94 88 86 83 84 84 83 83 79 72 65 64 60 56 52 51 50 52 51 55 52 51 47 36 24 20 34 58 67 70 72
106 102 98 98 89 92 87 85 86 83 82 82 82 81 78 71 65 64 60 57 52 51 51 51 50 51 51 51 44 40 34 31 27 30 32 53 68 71
98 96 90 87 85 84 84 83 80 81 81 81 80 77 70 65 64 60 57 54 51 52 51 50 51 52 50 47 44 40 39 36 32 32 32 43 62 72
93 88 87 79 81 85 82 79 79 80 80 78 73 67 64 60 58 56 54 52 51 51 51 51 51 52 47 45 46 48 46 45 42 38 38 41 46 64
83 80 76 78 77 80 75 76 77 78 75 69 64 61 56 55 54 52 50 49 50 51 52 52 50 49 51 51 50 49 50 50 48 48 49 49 49 52
74 73 75 75 78 73 72 74 74 72 67 61 59 55 53 51 51 49 49 50 51 51 50 50 52 53 54 55 54 54 55 55 54 54 57 59 59 60
69 72 70 71 70 68 68 71 72 65 59 56 54 52 51 50 50 49 48 47 48 52 52 50 52 56 58 60 62 63 63 62 61 62 64 65 67 69
68 69 63 65 67 67 69 70 65 57 54 52 49 48 47 45 44 45 47 49 50 51 53 54 56 60 64 66 67 68 69 68 65 66 67 66 67 66
62 57 61 63 67 67 69 69 62 55 53 51 48 46 45 47 48 49 50 51 52 54 57 60 64 67 70 72 72 72 72 70 68 66 64 62 61 62
56 59 61 67 68 68 67 68 62 57 55 55 54 53 53 52 52 52 53 55 57 61 64 68 70 73 76 77 77 75 72 70 66 63 61 59 58 57
60 63 66 63 63 68 67 65 61 59 55 57 59 59 57 56 55 57 58 61 64 67 69 72 73 76 79 81 78 75 71 65 61 59 57 55 55 56
62 64 63 63 66 68 69 65 59 60 58 57 59 60 60 60 61 61 63 65 67 69 71 74 77 80 83 83 79 73 64 61 60 56 55 55 59 60
62 61 61 64 67 68 68 64 62 63 59 58 61 62 62 64 66 66 68 69 70 71 75 77 81 85 84 82 78 69 62 60 58 58 59 60 59 57
64 62 63 65 67 70 71 69 65 64 63 62 63 63 64 65 66 67 67 70 73 75 77 81 85 84 83 78 71 68 65 63 58 56 58 59 57 52
56 61 64 68 71 74 73 69 66 66 65 65 65 64 64 65 66 67 68 71 76 78 82 83 83 83 78 72 70 67 66 62 57 57 58 57 51 46
62 68 68 71 74 74 70 66 67 68 66 66 65 65 65 66 67 68 70 75 79 84 85 82 78 70 68 70 68 68 64 60 57 55 54 53 45 39
66 69 73 74 75 70 67 67 68 68 67 68 67 67 67 67 69 71 75 79 84 84 82 76 66 65 64 66 71 64 60 53 49 48 46 43 39 31
70 73 75 71 69 68 69 69 68 68 68 68 68 68 69 71 73 75 79 83 82 82 76 66 63 61 63 64 66 62 51 44 40 41 38 32 29 26
72 70 68 69 70 66 65 66 68 68 68 69 69 70 72 74 76 80 82 81 79 73 68 65 60 60 60 59 57 51 42 36 37 31 26 23 23 22
66 69 67 65 64 63 65 67 68 69 70 70 71 72 74 77 79 81 80 79 71 65 64 63 61 59 55 51 46 37 31 28 26 21 17 18 22 17
64 64 64 63 63 63 65 67 68 68 68 69 70 72 75 77 78 78 75 68 65 64 61 61 59 57 51 42 34 24 23 24 25 21 18 19 20 21
Wind_Direction
288 290 290 292 294 295 295 296 297 299 301 302 301 302 303 305 306 307 305 305 304 303 300 301 305 309 312 315 318 317 315 286 240 222 222 223 229 232
288 290 291 292 292 294 294 296 298 300 301 299 300 302 303 304 304 304 303 302 302 300 301 303 305 311 315 317 319 324 324 327 250 226 221 221 224 229
289 289 290 291 291 293 294 295 299 300 299 300 301 302 303 302 300 300 300 300 301 299 299 301 305 311 313 316 319 325 326 321 300 255 235 226 226 231
286 288 288 291 290 292 293 297 298 299 299 300 301 302 302 300 298 297 298 299 298 297 297 301 304 309 310 311 311 313 316 313 302 278 266 253 243 242
285 285 288 291 291 293 296 298 299 298 299 301 302 301 299 296 295 295 296 297 295 295 297 301 305 307 306 305 302 304 303 298 292 285 272 256 248 242
282 286 289 289 290 294 295 297 296 298 299 302 300 299 296 296 295 295 294 294 294 297 299 301 304 303 303 301 301 301 299 294 289 282 274 265 258 245
283 286 287 287 291 293 295 296 296 298 303 301 299 297 297 297 297 295 293 294 296 297 300 303 303 303 302 302 301 300 298 295 289 282 278 275 269 260
283 282 284 287 289 292 294 295 299 302 302 300 299 298 298 298 296 294 294 296 297 300 302 303 305 305 305 305 304 303 300 295 289 285 282 279 272 267
277 282 286 287 287 293 295 297 302 302 302 304 300 298 295 294 293 293 296 299 300 301 303 304 305 306 306 305 304 303 300 296 291 286 281 276 273 272
278 282 281 283 287 291 297 301 303 301 304 303 300 296 296 297 298 299 299 299 301 302 303 305 307 307 307 307 306 304 301 298 294 288 284 281 278 274
276 279 280 286 289 291 295 300 304 298 297 299 299 299 299 300 300 299 299 300 301 301 303 304 306 306 307 307 307 306 302 299 294 291 288 284 278 273
275 278 282 286 288 289 296 300 302 299 296 295 295 295 297 299 299 298 299 299 300 301 302 303 304 305 306 307 307 304 301 297 295 292 289 285 279 273
276 278 283 285 286 290 294 299 299 297 295 294 294 294 294 296 298 297 297 298 300 302 302 303 305 305 306 307 305 303 300 297 294 292 289 284 278 274
275 281 282 284 286 290 294 297 297 295 295 295 293 293 294 294 295 297 299 300 303 303 303 304 305 306 307 307 305 302 300 297 295 292 287 282 280 278
278 277 279 285 288 292 295 297 297 296 295 295 294 294 294 293 293 295 296 300 302 302 304 306 306 307 307 306 304 301 299 296 295 292 289 285 282 282
277 275 280 283 287 291 294 297 295 298 297 297 297 295 294 295 295 297 299 300 302 303 305 306 307 306 306 304 301 300 298 296 295 290 286 285 287 286
276 276 278 282 287 291 292 293 293 298 297 298 300 296 294 295 297 299 301 302 303 305 306 306 306 306 304 301 300 299 297 297 294 291 287 286 285 283
274 277 283 286 287 288 290 292 294 296 298 299 298 296 295 297 298 301 301 302 305 305 305 306 306 304 301 301 300 300 300 300 295 289 285 282 280 275
276 280 282 284 287 290 289 291 295 297 298 298 297 297 297 298 300 300 302 304 305 305 306 306 305 305 304 304 302 303 302 299 297 291 283 278 273 269
278 283 286 289 289 290 291 293 295 296 297 297 297 297 297 299 300 303 304 305 306 305 306 305 306 305 306 305 306 303 306 307 291 281 284 277 270 265
282 284 285 288 290 291 292 294 296 297 297 297 298 298 299 300 302 304 305 305 306 306 305 306 306 306 305 307 302 303 306 298 292 289 280 270 267 269
282 285 287 288 289 292 294 295 296 297 297 298 298 298 299 302 304 304 305 305 306 305 307 307 307 305 306 305 300 303 301 295 290 286 284 278 273 272
282 283 285 288 291 293 294 297 298 299 298 298 299 300 301 303 304 304 305 306 306 307 308 307 305 303 306 297 293 292 291 291 290 290 287 276 276 281